Hourly Data Report for May 01, 2016

All times are specified in Local Standard Time (LST). Add 1 hour to adjust for Daylight Saving Time where and when it is observed.

LA RONGE RCS
SASKATCHEWAN

55°08'47.020" N
105°16'13.030" W
378.60 m
4064149
71586
XOX

Download Data

Hourly Data (May 2016)
Hourly Data Report for May 1, 2016
TIME Temp Definition
°C
Dew Point Definition
°C
Rel Hum Definition
%
Wind Dir Definition
10's deg

Wind Spd Definition
km/h
Visibility Definition
km
Stn Press Definition
kPa
Hmdx Definition


Wind Chill Definition


Weather Definition


00:00 13.0 -3.8 31 20 12   97.71     LegendNANA
01:00 12.3 -3.0 34 21 8   97.69     LegendNANA
02:00 11.8 -2.4 37 21 8   97.64     LegendNANA
03:00 11.1 -1.8 41 20 9   97.58     LegendNANA
04:00 10.6 -1.1 44 21 8   97.54     LegendNANA
05:00 10.4 0.1 49 22 7   97.51     LegendNANA
06:00 9.8 0.8 54 22 4   97.51     LegendNANA
07:00 8.7 4.0 72 17 7   97.49     LegendNANA
08:00 11.0 4.7 65 21 3   97.46     LegendNANA
09:00 12.8 3.1 52 28 7   97.44     LegendNANA
10:00 15.3 3.2 44 33 9   97.41     LegendNANA
11:00 16.7 0.5 33 30 10   97.39     LegendNANA
12:00 18.1 -3.3 23 31 18   97.35     LegendNANA
13:00 18.4 -1.6 26 33 16   97.33     LegendNANA
14:00 18.2 -1.9 25 30 17   97.30     LegendNANA
15:00 19.1 -1.9 24 31 15   97.25     LegendNANA
16:00 19.1 -3.3 22 32 16   97.23     LegendNANA
17:00 19.3 -4.1 20 27 9   97.23     LegendNANA
18:00 16.1 0.2 34 14 12   97.22     LegendNANA
19:00 14.7 0.1 37 17 10   97.21     LegendNANA
20:00 13.4 0.1 40 17 6   97.19     LegendNANA
21:00 11.1 -0.2 46 15 4   97.18     LegendNANA
22:00 8.4 -0.4 54 19 5   97.18     LegendNANA
23:00 6.3 -0.5 61 18 4   97.19     LegendNANA

Notes on Data Quality.

Legend

  • E = Estimated
  • M = Missing
  • NA = Not Available
Date modified: